Regional Weather Roundup
Issued by NWS

Home | Current Version | Previous Version | Text Only | Print | Product List | Glossary Off
Versions: 1 2 3 4 5 6 7 8 9 10 11 12 13 14 15 16 17 18 19 20 21 22 23 24 25 26 27 28 29 30 31 32 33 34 35 36 37 38 39 40 41 42 43 44 45 46 47 48 49 50

429
ASUS43 KDTX 240210
RWRMI
MICHIGAN HOURLY REGIONAL WEATHER ROUNDUP
NATIONAL WEATHER SERVICE DETROIT/PONTIAC MI
1000 PM EDT MON MAY 23 2016

NOTE: "FAIR" INDICATES FEW OR NO CLOUDS BELOW 12,000 FEET WITH NO
SIGNIFICANT WEATHER AND/OR OBSTRUCTION TO VISIBILITY.

MIZ047>049-052>055-059>063-066>070-074>076-081>083-240300-
SOUTHEAST LOWER MICHIGAN

CITY           SKY/WX    TMP DP  RH WIND       PRES   REMARKS
ADRIAN         CLEAR     62  43  49 CALM      30.01R
ALMA           CLEAR     61  45  55 SW5       29.97R
ANN ARBOR      CLEAR     59  47  64 S3        30.01R
BAD AXE        CLEAR     54  44  68 CALM      29.98R
CARO           CLEAR     53  43  67 CALM      29.98R
DETROIT CITY   CLEAR     65  42  43 S7        30.00R
DETROIT        PTCLDY    62  47  57 S5        30.01R
FLINT          CLEAR     62  40  44 CALM      29.98R
GROSSE ILE     CLEAR     61  55  82 S5        30.00R
HILLSDALE      CLEAR     59  39  47 CALM      30.02R
HOWELL         CLEAR     67  31  27 S3        30.00R

CITY           SKY/WX    TMP DP  RH WIND       PRES   REMARKS
JACKSON        CLEAR     61  39  44 CALM      30.01R
LAMBERTVILLE   CLEAR     60  49  67 CALM      30.02R
LANSING        CLEAR     64  43  46 CALM      29.99R
LAPEER         FAIR      56  46  66 CALM      29.99R
MASON          CLEAR     65  38  36 SE5       29.99S
MONROE         CLEAR     59  52  76 SE3       30.00R
MT. CLEMENS    PTCLDY    58  46  63 S8        29.98R
PONTIAC        CLEAR     66  41  40 S5        30.00R
PORT HOPE        N/A     60  38  43 S8        29.96R
PORT HURON     CLEAR     55  48  76 CALM      29.99R
TRI CITIES     CLEAR     67  39  35 S7        29.97S
MIDLAND        FAIR      59  47  64 CALM      29.96R
TROY           CLEAR     69  40  34 SW6       30.02R
SAGINAW HB     CLEAR     61  41  48 S5        29.97R
$$
MIZ043>046-050>051-056>058-064>065-071>073-077>080-240300-
SOUTHWEST LOWER MICHIGAN

CITY           SKY/WX    TMP DP  RH WIND       PRES   REMARKS
BATTLE CREEK   CLEAR     60  38  43 S3        30.00R
BENTON HARBOR  CLEAR     57  46  66 E5        29.96R
BIG RAPIDS     CLEAR     62  44  51 SW3       29.96R
COLDWATER      CLEAR     58  38  46 CALM      30.01R
FREMONT        FAIR      60  42  52 CALM      29.95S
HOLLAND        CLEAR     60  49  66 E3        29.96S
GRAND RAPIDS   PTCLDY    70  42  36 W3        29.98R
IONIA          FAIR      69  37  31 S5        29.98R
KALAMAZOO      CLEAR     65  36  34 S3        30.00R
LUDINGTON      CLEAR     59  37  44 SE3       29.93S
MARSHALL       CLEAR     62  42  47 CALM      30.00R
MOUNT PLEASANT CLEAR     69  40  35 S3        29.96R
MUSKEGON       PTCLDY    61  42  49 SE6       29.95S
SOUTH HAVEN    CLEAR     58  46  62 CALM      29.96S
$$
MIZ016>042-240300-
NORTHERN LOWER MICHIGAN

CITY           SKY/WX    TMP DP  RH WIND       PRES   REMARKS
ALPENA         CLEAR     53  46  77 CALM      29.93R
BEAVER ISLAND  CLEAR     64  34  32 SW14G21   29.90S
BELLAIRE       CLEAR     58  48  69 CALM      29.94R
CADILLAC       CLEAR     59  39  47 CALM      29.96R
CHARLEVOIX     CLEAR     65  37  35 S5        29.94S
FRANKFORT      CLEAR     66  37  33 SE3       29.92S
GAYLORD        CLEAR     67  41  38 NE3       29.96R
GRAYLING       CLEAR     63  44  50 W3        29.96R
HARBOR SPRINGS CLEAR     56  40  55 CALM      29.94R
HOUGHTON LAKE  CLEAR     67  42  40 S6        29.95S
MANISTEE       CLEAR     61  34  36 E5        29.94S
OSCODA         CLEAR     62  39  42 S8        29.94S
PELLSTON       LGT RAIN  55  38  52 SE3       29.93R
ROGERS CITY    CLEAR     49  45  83 CALM      29.93R
TRAVERSE CITY  PTCLDY    65  40  39 S3        29.92R
$$
MIZ007>008-015-240300-
EASTERN UPPER MICHIGAN

CITY           SKY/WX    TMP DP  RH WIND       PRES   REMARKS
KINROSS          N/A     57  39  51 S5        29.92R
MACKINAC ISLAN CLEAR     59  40  49 S7        29.92S
NEWBERRY       CLEAR     58  37  46 S9        29.89R
S. S. MARIE    CLEAR     60  39  45 S6        29.92R
MUNISING         N/A     66  38  35 S6        29.84R
$$
MIZ004>006-011>014-085-240300-
CENTRAL UPPER MICHIGAN

CITY           SKY/WX    TMP DP  RH WIND       PRES   REMARKS
MANISTIQUE     CLEAR     55  43  64 SW5       29.88R
ESCANABA       CLEAR     61  43  51 S7        29.86S
MENOMINEE      CLEAR     66  43  42 S7        29.86R
SAWYER-GWINN   CLEAR     68  45  42 S13       29.84R
$$
MIZ001>003-009>011-084-240300-
WESTERN UPPER MICHIGAN

CITY           SKY/WX    TMP DP  RH WIND       PRES   REMARKS
IRON MOUNTAIN  CLOUDY    70  49  47 SE7       29.83R
HOUGHTON       LGT RAIN  65  59  81 NW23G31   29.80R
COPPER HARBOR    N/A     60  51  72 N3        29.78R
IRONWOOD       CLOUDY    64  63  94 CALM      29.80R
$$

ABBREVIATIONS USED IN REMARKS
   TC - TEMPERATURE IN CELSIUS
  WCI - WIND CHILL INDEX
   HX - HEAT INDEX
  VSB - VISIBILITY





USA.gov is the U.S. government's official web portal to all federal, state and local government web resources and services.